TimeCDT,TemperatureF,Dew PointF,Humidity,Sea Level PressureIn,VisibilityMPH,Wind Direction,Wind SpeedMPH,Gust SpeedMPH,PrecipitationIn,Events,Conditions,WindDirDegrees,DateUTC
12:08 AM,66.2,64.4,94,29.86,8.0,Calm,Calm,-,0.01,Rain,Light Rain,0,2013-06-01 05:08:00
12:37 AM,66.2,62.6,88,29.88,4.0,SW,3.5,-,0.09,Rain-Thunderstorm,Thunderstorms and Rain,220,2013-06-01 05:37:00
12:54 AM,66.0,63.0,90,29.84,5.0,SE,3.5,-,0.15,Rain-Thunderstorm,Thunderstorms and Rain,140,2013-06-01 05:54:00
1:11 AM,64.4,62.6,94,29.84,5.0,SSE,5.8,-,0.04,Rain-Thunderstorm,Thunderstorms and Rain,150,2013-06-01 06:11:00
1:38 AM,64.4,62.6,94,29.74,10.0,SSE,15.0,20.7,0.09,Rain-Thunderstorm,Light Rain,150,2013-06-01 06:38:00
1:54 AM,66.0,63.0,90,29.74,10.0,South,13.8,-,0.09,,Mostly Cloudy,170,2013-06-01 06:54:00
2:54 AM,66.0,63.0,90,29.73,10.0,SE,4.6,-,N/A,,Clear,140,2013-06-01 07:54:00
3:54 AM,66.0,62.1,87,29.74,10.0,SW,9.2,-,0.01,,Partly Cloudy,220,2013-06-01 08:54:00
4:54 AM,66.0,63.0,90,29.68,10.0,South,9.2,-,0.01,,Scattered Clouds,170,2013-06-01 09:54:00
5:54 AM,66.0,62.1,87,29.73,10.0,Calm,Calm,-,0.00,,Clear,0,2013-06-01 10:54:00
6:54 AM,66.0,63.0,90,29.78,10.0,Variable,3.5,-,0.01,Rain,Light Rain,0,2013-06-01 11:54:00
7:54 AM,66.0,63.0,90,29.80,8.0,South,8.1,-,0.02,Rain,Light Rain,180,2013-06-01 12:54:00
8:51 AM,66.2,62.6,88,29.77,10.0,Calm,Calm,-,0.02,,Overcast,0,2013-06-01 13:51:00
8:54 AM,66.9,63.0,87,29.76,10.0,Variable,3.5,-,0.02,,Overcast,0,2013-06-01 13:54:00
9:02 AM,66.2,62.6,88,29.77,10.0,WSW,4.6,-,N/A,,Overcast,240,2013-06-01 14:02:00
9:35 AM,68.0,64.4,88,29.76,10.0,Calm,Calm,-,N/A,,Mostly Cloudy,0,2013-06-01 14:35:00
9:44 AM,68.0,64.4,88,29.76,10.0,Variable,3.5,-,N/A,,Scattered Clouds,0,2013-06-01 14:44:00
9:54 AM,68.0,64.0,87,29.75,10.0,South,6.9,-,N/A,,Partly Cloudy,170,2013-06-01 14:54:00
10:54 AM,69.1,64.0,84,29.73,10.0,SSE,9.2,18.4,N/A,,Partly Cloudy,160,2013-06-01 15:54:00
11:54 AM,71.1,64.0,78,29.77,10.0,South,13.8,21.9,N/A,,Clear,180,2013-06-01 16:54:00
12:54 PM,72.0,64.0,76,29.77,10.0,South,10.4,-,N/A,,Overcast,190,2013-06-01 17:54:00
1:54 PM,73.0,64.0,73,29.75,10.0,SW,10.4,17.3,N/A,,Overcast,220,2013-06-01 18:54:00
2:54 PM,73.9,64.9,73,29.75,10.0,SW,10.4,19.6,N/A,,Mostly Cloudy,230,2013-06-01 19:54:00
3:54 PM,75.9,66.0,71,29.75,10.0,SW,10.4,-,N/A,,Mostly Cloudy,220,2013-06-01 20:54:00
4:54 PM,78.1,64.9,64,29.74,10.0,SW,15.0,19.6,N/A,,Mostly Cloudy,230,2013-06-01 21:54:00
5:54 PM,77.0,62.1,60,29.75,10.0,West,18.4,25.3,N/A,,Scattered Clouds,270,2013-06-01 22:54:00
6:54 PM,73.9,57.0,55,29.77,10.0,West,15.0,26.5,N/A,,Partly Cloudy,270,2013-06-01 23:54:00
7:54 PM,71.1,55.9,59,29.80,10.0,West,9.2,-,N/A,,Scattered Clouds,260,2013-06-02 00:54:00
8:54 PM,66.0,57.0,73,29.83,10.0,West,5.8,-,N/A,,Scattered Clouds,260,2013-06-02 01:54:00
9:54 PM,66.9,57.9,73,29.85,10.0,WSW,4.6,-,N/A,,Mostly Cloudy,250,2013-06-02 02:54:00
10:54 PM,66.0,57.9,75,29.87,10.0,West,5.8,-,N/A,,Overcast,260,2013-06-02 03:54:00
11:54 PM,66.0,57.0,73,29.88,10.0,West,6.9,-,N/A,,Mostly Cloudy,270,2013-06-02 04:54:00